Overview Statistics Trail Chart Weather Telemetry Raw packets
 

This is the latest recevied weather packets stored in our database for station/object 4S6DRJ-13. If no packets are shown the sender has not sent any weather packets the latest 10 day(s).

<< 416 417 418 419 420 421 422 >>
Time Temp. Humidity Pressure Rain* Wind** Luminosity Snow
1787829558 29.44° C 77% 1008.3 hPa 0 mm 2.24 m/s, 307° 233 W/m² -
1787829497 29.44° C 77% 1008.2 hPa 0 mm 1.79 m/s, 303° 228 W/m² -
1787829436 29.44° C 77% 1008.3 hPa 0 mm 2.24 m/s, 257° 230 W/m² -
1787829375 29.44° C 77% 1008.3 hPa 0 mm 1.79 m/s, 236° 209 W/m² -
1787829314 29.44° C 77% 1008.2 hPa 0 mm 1.34 m/s, 314° 242 W/m² -
1787829253 29.44° C 77% 1008.2 hPa 0 mm 1.79 m/s, 240° 228 W/m² -
1787829192 29.44° C 77% 1008.2 hPa 0 mm 1.34 m/s, 321° 233 W/m² -
1787829131 29.44° C 77% 1008.1 hPa 0 mm 1.34 m/s, 229° 241 W/m² -
1787829070 29.44° C 77% 1008.1 hPa 0 mm 2.24 m/s, 58° 244 W/m² -
1787829009 29.44° C 77% 1008 hPa 0 mm 2.68 m/s, 278° 211 W/m² -
1787828948 29.44° C 78% 1008.3 hPa 0 mm 0.89 m/s, 308° 229 W/m² -
1787828887 29.44° C 78% 1008.1 hPa 0 mm 0.45 m/s, 220° 260 W/m² -
1787828826 29.44° C 78% 1008.2 hPa 0 mm 1.79 m/s, 155° 264 W/m² -
1787828765 29.44° C 78% 1008.2 hPa 0 mm 1.79 m/s, 261° 236 W/m² -
1787828704 29.44° C 78% 1008.1 hPa 0 mm 2.24 m/s, 281° 224 W/m² -
1787828643 29.44° C 78% 1008 hPa 0 mm 1.79 m/s, 262° 285 W/m² -
1787828582 29.44° C 78% 1008.2 hPa 0 mm 1.34 m/s, 262° 286 W/m² -
1787828521 29.44° C 78% 1008.3 hPa 0 mm 2.24 m/s, 198° 226 W/m² -
1787828460 29.44° C 77% 1008.1 hPa 0 mm 2.24 m/s, 71° 281 W/m² -
1787828399 29.44° C 77% 1008.2 hPa 0 mm 2.68 m/s, 269° 226 W/m² -
1787828338 29.44° C 77% 1008.1 hPa 0 mm 2.24 m/s, 155° 225 W/m² -
1787828282 29.44° C 77% 1008.1 hPa 0 mm 1.34 m/s, 249° 229 W/m² -
1787828216 29.44° C 78% 1008.2 hPa 0 mm 0 m/s 218 W/m² -
1787828155 29.44° C 77% 1008 hPa 0 mm 1.34 m/s, 177° 234 W/m² -
1787828094 29.44° C 77% 1008.1 hPa 0 mm 2.24 m/s, 300° 324 W/m² -

* Rain latest hour (hover to see other rain measurements)
** Current wind speed in m/s (hover to see current wind gust speed)